Theta_e
317 313 316 317 312 311 312 313 313 313 313 311 311 309 307 303 300 298 296 296 296 294 295 295 295 294 293 293 294 293 294 294 294 295 294 294 295 296 299 300 301 301 304 302
318 318 312 311 311 314 314 313 312 312 313 310 309 309 306 301 300 298 297 297 296 294 293 295 295 293 293 293 293 293 294 294 294 294 294 293 294 296 296 298 300 300 299 300
315 316 310 310 311 313 311 311 311 311 309 307 307 306 304 299 298 298 297 297 294 293 293 293 293 293 292 292 293 293 293 293 293 294 294 293 293 295 295 295 297 299 300 299
310 308 311 312 313 311 311 306 307 308 307 306 305 305 306 298 297 297 297 294 293 292 293 292 292 292 292 292 293 292 292 292 292 294 292 293 293 293 294 295 295 297 299 299
313 308 308 309 309 310 311 305 305 305 306 305 304 303 306 300 298 298 295 294 293 293 292 291 292 292 292 292 292 292 291 291 291 289 289 289 291 292 291 292 295 295 297 299
308 307 308 308 310 308 306 306 306 305 303 305 305 305 307 302 301 296 294 292 293 292 291 291 292 292 292 291 291 290 290 289 288 286 284 284 285 285 288 291 293 293 295 298
312 308 307 306 308 308 307 305 306 310 308 309 303 301 303 298 296 294 293 292 292 291 290 290 291 291 291 290 290 289 287 286 284 282 281 281 281 282 284 286 290 294 296 298
312 314 309 306 307 305 305 304 305 307 309 307 300 301 303 297 295 294 293 292 291 290 290 291 291 290 290 290 289 287 285 284 282 281 280 279 279 280 281 284 285 287 292 298
312 311 302 300 301 302 305 303 302 303 294 298 299 302 298 296 295 294 292 291 290 290 290 290 290 290 290 289 287 285 284 282 281 279 278 278 278 278 280 281 282 284 286 292
307 308 304 298 299 298 299 300 301 300 297 300 303 302 302 296 295 293 291 291 290 290 290 289 289 289 289 287 286 284 282 280 279 278 277 276 277 277 277 278 279 282 285 287
304 305 303 300 299 300 296 297 297 297 302 301 299 300 296 295 294 292 292 291 290 290 289 289 288 288 287 286 284 282 281 279 278 277 276 275 275 275 276 277 278 280 283 284
302 303 303 302 296 295 295 297 297 295 298 296 297 297 298 296 292 291 291 290 290 290 289 288 288 287 286 284 283 281 280 278 277 276 274 274 273 275 274 276 278 279 279 283
297 301 307 304 295 294 293 294 294 295 295 295 299 298 294 294 293 290 290 289 289 289 288 288 287 286 285 283 281 279 278 277 277 275 274 272 272 273 273 273 273 275 277 279
299 301 306 316 310 296 294 293 293 293 294 296 296 295 296 296 295 290 289 289 288 288 288 287 286 284 283 281 279 278 276 276 275 274 273 272 271 271 271 272 273 274 275 278
298 302 302 301 298 297 297 295 293 293 293 294 296 295 296 294 291 289 290 290 289 288 288 286 284 282 281 279 278 276 275 274 274 272 271 271 270 270 271 270 271 272 275 278
298 300 301 300 296 295 294 294 293 294 294 293 293 293 294 294 292 289 289 289 288 288 286 284 282 281 279 277 276 274 273 272 272 271 271 270 270 270 269 270 271 271 275 277
300 299 298 302 296 296 297 295 294 294 294 293 293 293 294 292 290 290 289 288 287 285 284 282 280 279 277 275 274 272 271 271 270 270 269 269 269 269 269 270 270 271 272 274
300 299 299 299 298 300 299 291 292 293 294 294 294 294 292 291 290 290 288 285 284 283 282 280 278 276 274 273 272 270 270 269 270 269 269 269 268 268 268 269 269 270 271 273
298 298 297 299 298 299 298 295 289 289 290 292 293 293 291 289 289 288 285 284 282 281 280 278 276 274 273 271 270 269 268 269 269 269 268 267 267 267 267 267 268 269 270 272
298 298 299 297 298 298 292 289 289 289 289 290 291 290 289 289 286 286 284 282 281 279 277 275 273 272 271 269 268 267 267 267 268 267 266 266 265 265 266 267 268 269 269 271
297 296 297 297 298 296 295 289 290 291 295 290 289 289 289 289 287 285 282 281 279 277 275 273 271 270 269 268 267 266 266 267 266 265 264 263 264 265 267 270 270 270 270 272
296 295 295 295 296 296 292 289 291 292 290 290 289 289 289 288 287 283 281 278 276 274 272 271 269 268 267 266 265 265 265 264 264 263 262 263 264 268 269 271 273 275 273 274
296 296 296 295 295 293 290 291 290 291 290 290 289 287 287 285 283 281 278 276 274 272 271 269 267 266 266 265 264 263 263 263 262 260 261 264 267 267 269 270 273 278 277 278
294 295 295 295 295 294 292 292 290 290 290 289 287 284 283 282 279 277 275 273 271 270 269 267 265 265 264 263 262 261 261 260 259 260 262 264 266 267 268 269 271 274 278 284
295 294 296 296 294 293 292 291 291 290 288 285 282 281 281 279 277 275 272 270 270 268 266 265 264 263 263 262 261 260 259 258 258 261 263 264 265 266 267 268 269 271 274 278
294 295 296 296 295 295 293 291 290 289 286 283 281 278 277 277 276 273 270 269 267 266 265 264 262 262 261 260 259 259 258 257 258 261 262 263 264 265 265 266 267 268 271 274
Wind_Speed
1 1 7 5 5 4 5 7 10 10 4 0 7 8 9 13 9 8 7 6 5 6 11 15 14 19 26 27 27 31 33 34 35 33 31 32 33 36 33 34 39 32 31 38
5 7 4 3 3 4 6 9 11 4 4 5 10 15 4 14 11 9 7 4 4 6 7 12 16 22 27 30 32 36 35 37 38 37 33 37 39 37 36 36 37 36 29 31
4 7 2 2 5 7 7 8 4 4 7 10 17 14 9 8 6 7 7 4 6 7 7 6 11 20 30 31 33 35 37 40 41 42 33 43 41 36 32 35 34 34 30 27
8 3 2 5 7 4 5 4 3 8 5 4 7 7 3 13 10 9 7 6 6 6 6 6 10 25 29 31 33 36 38 40 43 35 45 42 34 39 35 36 35 37 32 27
8 2 3 4 4 2 2 2 6 10 11 11 9 6 5 19 13 11 8 6 6 5 5 7 14 23 29 29 34 35 40 40 38 43 44 44 42 37 44 44 35 37 32 27
13 6 3 2 2 2 6 6 9 12 9 4 7 5 5 10 14 10 6 6 5 5 5 10 21 25 29 32 35 35 37 38 39 38 45 45 43 40 38 40 39 39 33 28
0 10 3 1 3 5 3 4 4 5 1 6 6 5 8 6 10 10 7 5 5 5 10 10 13 22 27 34 33 37 40 42 41 41 40 38 39 43 40 37 35 38 28 24
4 4 7 5 2 1 3 0 4 6 3 5 7 7 4 13 11 9 7 5 6 9 7 10 15 24 28 30 35 37 40 43 44 41 41 39 37 36 37 35 34 35 38 27
4 4 4 3 3 2 4 4 1 1 2 3 5 6 5 11 9 7 6 7 7 6 8 9 20 25 23 31 32 35 37 42 41 39 40 38 37 37 36 38 37 35 38 37
4 7 2 3 1 2 2 3 3 1 3 6 5 7 4 8 5 6 5 4 4 6 9 11 17 20 28 28 32 34 35 36 38 40 35 39 37 37 40 38 38 37 35 40
2 4 2 4 7 7 4 3 4 1 4 5 3 4 6 7 7 3 2 3 7 8 8 11 18 22 28 27 31 34 35 37 38 36 36 38 38 39 35 36 38 34 33 36
6 4 4 7 3 3 0 6 9 4 5 4 5 15 5 2 9 7 4 4 5 7 9 14 15 26 29 30 34 36 40 39 39 39 40 34 41 35 41 36 34 31 34 32
8 3 3 5 2 0 5 6 4 4 2 17 4 9 5 9 10 7 4 4 5 9 13 15 15 21 26 29 34 37 37 40 39 43 38 38 36 35 36 38 42 38 35 31
5 5 10 17 8 5 5 8 10 13 12 22 24 30 15 13 13 5 6 6 7 10 14 12 16 21 27 29 33 38 40 38 40 42 40 40 38 37 36 34 38 39 36 31
5 8 12 21 16 9 13 9 13 18 23 18 33 22 21 9 4 3 2 5 8 12 12 12 15 15 27 31 35 38 38 40 41 43 41 39 40 39 37 37 35 39 37 28
4 4 7 15 7 10 17 16 16 22 25 24 28 33 18 12 2 4 4 6 9 11 10 13 16 22 26 30 37 41 41 42 42 41 40 42 40 40 38 36 34 37 36 31
8 6 4 6 4 8 14 22 27 27 20 23 23 29 12 6 2 2 4 6 5 8 11 14 16 21 29 33 38 41 43 45 42 40 41 39 41 38 38 37 35 34 35 34
8 6 5 1 4 6 3 3 3 11 19 19 24 23 5 1 3 3 4 3 4 8 11 12 18 26 30 33 36 40 41 40 39 39 39 37 41 41 39 37 35 34 32 31
7 7 4 4 7 11 16 5 7 8 7 12 18 14 4 6 4 4 7 3 2 5 10 14 20 26 31 32 35 39 41 39 38 36 40 40 40 41 40 37 36 33 32 30
8 8 6 5 5 8 2 3 8 6 10 15 12 8 6 6 1 4 3 4 5 9 12 15 21 25 27 31 32 35 36 38 37 41 42 43 42 40 39 39 37 34 31 32
7 5 16 12 8 9 7 11 6 5 4 3 6 6 6 4 5 4 4 1 4 9 13 16 18 21 27 33 33 34 35 34 42 42 43 43 41 42 39 38 35 33 30 28
13 12 6 8 7 16 14 9 9 4 6 10 6 6 5 5 1 1 2 3 5 8 14 17 19 22 26 27 29 32 32 41 43 43 42 42 42 38 37 35 35 28 27 26
7 10 8 14 8 1 21 5 12 5 7 6 8 5 7 6 5 3 2 4 7 12 15 16 19 25 25 27 29 32 39 42 45 42 40 42 40 39 36 34 32 27 20 21
10 13 4 5 9 12 11 7 8 8 5 6 5 6 8 6 6 3 1 3 6 10 14 17 20 22 26 29 30 29 36 41 41 38 38 39 39 40 36 32 28 26 23 19
7 15 13 6 9 2 8 11 10 8 8 7 6 6 7 6 4 4 3 1 6 9 11 14 17 20 26 30 31 33 36 40 39 37 36 37 36 36 37 31 29 27 23 25
9 10 10 8 10 11 7 13 10 13 11 10 10 6 4 6 6 5 3 1 4 8 11 13 16 19 24 28 31 34 37 37 36 34 34 36 36 35 34 34 33 28 28 28
Wind_Direction
109 308 282 47 54 326 272 263 272 279 112 172 244 262 260 150 142 138 120 98 67 47 17 12 14 10 358 347 342 335 326 323 317 313 314 311 302 300 300 301 300 306 309 317
312 270 68 21 287 260 276 271 274 299 139 350 270 262 157 164 168 148 128 112 62 26 18 10 11 3 353 342 337 332 326 323 319 309 309 309 301 292 294 294 295 294 304 307
290 278 66 279 294 282 283 285 319 290 311 272 275 271 151 156 133 143 157 159 58 33 8 356 3 359 351 339 333 330 326 321 319 309 310 311 296 290 288 290 286 288 292 302
267 81 36 306 275 284 280 50 312 280 308 243 51 286 84 167 174 180 156 88 47 17 3 337 352 3 344 331 330 328 323 324 316 315 319 307 309 298 294 283 287 287 288 294
248 242 277 272 271 88 252 330 258 261 253 282 256 255 285 158 190 182 141 92 40 12 356 319 12 351 335 329 329 327 323 319 319 315 311 309 301 301 303 294 285 285 286 286
248 119 215 278 104 183 324 287 272 252 258 271 256 227 225 179 198 143 118 67 35 353 324 2 357 336 329 331 328 327 327 322 321 320 316 309 308 315 315 304 288 287 283 281
248 211 110 154 261 156 226 289 325 331 9 228 74 331 241 139 99 120 100 59 25 348 14 0 336 334 328 331 327 330 326 321 321 319 315 314 311 308 305 304 315 290 276 273
262 296 166 154 208 72 202 156 159 259 261 268 23 253 247 123 125 130 88 69 28 17 356 337 331 329 330 328 328 328 325 321 321 320 318 315 310 305 306 301 309 306 312 277
310 243 94 30 46 127 153 200 13 354 59 359 231 259 71 140 149 94 47 39 22 349 334 333 332 328 328 325 326 323 322 319 317 317 316 314 310 307 307 308 305 298 304 312
348 300 53 98 101 144 251 159 80 133 294 266 249 250 238 186 155 76 21 18 342 342 342 334 326 317 330 322 321 319 319 317 315 317 314 313 308 307 304 302 303 303 301 301
33 207 170 127 202 181 168 226 221 335 194 221 295 256 148 156 156 112 4 12 1 336 330 326 315 328 324 321 318 318 319 320 319 319 317 312 311 305 302 302 300 301 304 303
194 240 246 250 71 49 296 223 182 164 243 256 252 262 328 97 136 113 66 6 310 327 326 325 323 329 324 324 323 322 322 322 321 318 317 315 312 305 302 297 297 302 304 303
177 221 315 279 77 83 234 204 242 254 177 237 231 252 129 152 179 83 58 316 336 332 330 319 329 325 323 324 323 320 318 318 320 318 314 314 312 308 304 301 298 297 296 295
152 209 207 256 270 148 221 219 213 220 237 254 237 258 255 271 293 37 6 347 348 330 326 324 325 322 323 323 321 320 318 318 319 317 314 311 310 305 300 296 298 294 291 286
171 229 230 255 272 278 266 252 219 219 234 232 261 246 265 257 206 174 355 345 332 330 323 329 320 319 322 323 321 320 318 318 320 317 314 310 308 305 301 298 293 292 287 274
180 240 246 266 278 274 267 248 248 245 242 247 257 270 258 283 246 21 343 356 325 317 328 323 319 320 322 325 322 321 318 318 319 313 313 310 308 306 301 298 292 294 295 277
185 199 170 247 61 336 282 234 233 244 240 238 247 250 283 245 248 32 5 331 325 330 324 323 321 320 323 324 321 317 316 315 315 312 312 310 308 305 303 298 294 289 290 290
182 175 168 239 109 247 242 185 221 244 251 245 252 257 234 190 104 25 5 100 336 319 327 322 320 319 319 317 316 316 315 313 313 313 314 314 312 306 303 297 291 287 282 280
181 171 174 212 200 298 296 203 170 182 252 227 235 245 200 115 76 315 94 90 305 332 317 319 319 316 314 317 318 316 315 315 315 318 320 316 314 308 303 297 291 286 282 277
178 195 202 166 219 235 151 112 97 95 270 217 211 219 159 99 136 246 73 43 337 320 321 321 318 315 314 319 320 316 315 321 321 324 321 317 314 307 299 293 288 284 278 274
184 201 218 226 237 273 205 153 139 147 255 109 161 137 148 186 201 136 80 65 317 314 319 323 319 313 318 322 325 321 321 320 322 321 321 318 314 306 300 296 286 276 272 271
177 172 195 205 220 252 147 135 189 188 142 140 139 160 178 197 104 344 350 329 319 326 331 326 320 324 327 324 326 322 324 325 324 325 323 321 319 319 315 311 304 286 261 266
201 193 178 198 212 109 170 169 200 165 162 173 147 152 168 166 200 187 269 326 334 335 326 327 329 327 329 331 333 327 327 329 327 326 327 327 326 326 325 323 319 319 260 260
227 207 216 153 219 227 203 199 170 203 146 136 133 148 164 171 156 183 188 326 324 322 328 335 337 331 326 333 333 330 329 330 328 327 331 333 332 331 333 332 332 330 333 300
183 172 194 249 270 276 211 212 214 159 133 129 137 154 170 156 163 168 137 237 299 312 331 339 333 326 325 332 334 337 337 336 332 333 336 339 335 336 333 336 335 333 335 332
183 173 184 211 197 205 204 200 181 159 172 167 152 147 151 161 156 138 173 231 307 327 341 342 336 332 331 334 337 340 342 340 336 337 342 341 336 339 338 337 338 344 349 351